| time (UTC) | temp F | wind direction | speed knots | gust knots | rain 1hr in | rain 24hr in | rain mn in | humidity % | barometer mb |
| 20260903162012 | 73 | 259 | 1.7 | 7.0 | 0.00 | 0.00 | 0.00 | 53 | 1019.3 |
| 20260903161012 | 73 | 232 | 3.5 | 9.6 | 0.00 | 0.00 | 0.00 | 53 | 1019.4 |
| 20260903160012 | 73 | 228 | 2.6 | 7.0 | 0.00 | 0.00 | 0.00 | 53 | 1019.3 |
| 20260903155012 | 72 | 254 | 3.5 | 8.7 | 0.00 | 0.00 | 0.00 | 54 | 1019.3 |
| 20260903154012 | 72 | 223 | 2.6 | 7.0 | 0.00 | 0.00 | 0.00 | 54 | 1019.5 |
| 20260903153012 | 72 | 223 | 2.6 | 7.0 | 0.00 | 0.00 | 0.00 | 54 | 1019.5 |
| 20260903152012 | 73 | 252 | 2.6 | 7.0 | 0.00 | 0.00 | 0.00 | 54 | 1019.5 |
| 20260903151012 | 73 | 198 | 3.5 | 7.8 | 0.00 | 0.00 | 0.00 | 52 | 1019.4 |
| 20260903150012 | 73 | 211 | 1.7 | 5.2 | 0.00 | 0.00 | 0.00 | 53 | 1019.5 |
| 20260903145011 | 72 | 231 | 1.7 | 5.2 | 0.00 | 0.00 | 0.00 | 54 | 1019.7 |
| 20260903144011 | 72 | 203 | 2.6 | 7.0 | 0.00 | 0.00 | 0.00 | 54 | 1019.7 |
| 20260903143012 | 72 | 248 | 2.6 | 7.0 | 0.00 | 0.00 | 0.00 | 56 | 1019.9 |
| 20260903142011 | 72 | 173 | 3.5 | 10.4 | 0.00 | 0.00 | 0.00 | 53 | 1019.9 |
| 20260903141011 | 73 | 209 | 4.3 | 11.3 | 0.00 | 0.00 | 0.00 | 53 | 1020.0 |
| 20260903140011 | 73 | 271 | 4.3 | 9.6 | 0.00 | 0.00 | 0.00 | 54 | 1019.9 |
| 20260903135011 | 73 | 252 | 4.3 | 10.4 | 0.00 | 0.00 | 0.00 | 53 | 1020.1 |
| 20260903134011 | 73 | 269 | 4.3 | 10.4 | 0.00 | 0.00 | 0.00 | 53 | 1020.3 |
| 20260903133011 | 73 | 257 | 5.2 | 11.3 | 0.00 | 0.00 | 0.00 | 51 | 1020.3 |
| 20260903132011 | 74 | 283 | 7.0 | 17.4 | 0.00 | 0.00 | 0.00 | 53 | 1020.3 |
| 20260903131011 | 74 | 233 | 5.2 | 11.3 | 0.00 | 0.00 | 0.00 | 51 | 1020.5 |
| 20260903130011 | 74 | 281 | 5.2 | 11.3 | 0.00 | 0.00 | 0.00 | 52 | 1020.5 |
| 20260903125011 | 74 | 238 | 3.5 | 7.8 | 0.00 | 0.00 | 0.00 | 52 | 1020.3 |
| 20260903124011 | 74 | 274 | 5.2 | 14.8 | 0.00 | 0.00 | 0.00 | 52 | 1020.2 |
| 20260903123011 | 74 | 292 | 5.2 | 12.2 | 0.00 | 0.00 | 0.00 | 52 | 1020.2 |
| 20260903122011 | 74 | 242 | 3.5 | 11.3 | 0.00 | 0.00 | 0.00 | 52 | 1020.3 |
| 20260903121011 | 74 | 227 | 4.3 | 15.6 | 0.00 | 0.00 | 0.00 | 51 | 1020.5 |
| 20260903120011 | 74 | 236 | 4.3 | 11.3 | 0.00 | 0.00 | 0.00 | 52 | 1020.5 |
| 20260903115011 | 74 | 219 | 4.3 | 10.4 | 0.00 | 0.00 | 0.00 | 53 | 1020.6 |
| 20260903114011 | 74 | 238 | 5.2 | 12.2 | 0.00 | 0.00 | 0.00 | 52 | 1020.8 |
| 20260903113011 | 75 | 280 | 5.2 | 10.4 | 0.00 | 0.00 | 0.00 | 51 | 1020.8 |
| 20260903112011 | 75 | 240 | 6.1 | 11.3 | 0.00 | 0.00 | 0.00 | 50 | 1020.9 |
| 20260903111011 | 74 | 269 | 1.7 | 8.7 | 0.00 | 0.00 | 0.00 | 52 | 1020.9 |
| 20260903110011 | 74 | 245 | 3.5 | 9.6 | 0.00 | 0.00 | 0.00 | 50 | 1021.0 |
| 20260903105011 | 73 | 188 | 4.3 | 11.3 | 0.00 | 0.00 | 0.00 | 54 | 1021.2 |
| 20260903104011 | 72 | 211 | 3.5 | 11.3 | 0.00 | 0.00 | 0.00 | 53 | 1021.3 |
| 20260903103011 | 71 | 192 | 1.7 | 5.2 | 0.00 | 0.00 | 0.00 | 55 | 1021.4 |
| 20260903102011 | 70 | 168 | 3.5 | 8.7 | 0.00 | 0.00 | 0.00 | 53 | 1021.4 |
| 20260903101011 | 70 | 212 | 3.5 | 7.8 | 0.00 | 0.00 | 0.00 | 52 | 1021.7 |
| 20260903100011 | 70 | 245 | 4.3 | 10.4 | 0.00 | 0.00 | 0.00 | 55 | 1021.8 |
| 20260903095011 | 70 | 254 | 5.2 | 12.2 | 0.00 | 0.00 | 0.00 | 52 | 1021.7 |
| 20260903094011 | 70 | 286 | 4.3 | 9.6 | 0.00 | 0.00 | 0.00 | 52 | 1021.7 |
| 20260903093009 | 70 | 245 | 5.2 | 10.4 | 0.00 | 0.00 | 0.00 | 55 | 1021.4 |
| 20260903092019 | 70 | 245 | 5.2 | 10.4 | 0.00 | 0.00 | 0.00 | 55 | 1021.4 |
| 20260903091011 | 69 | 264 | 6.1 | 10.4 | 0.00 | 0.00 | 0.00 | 56 | 1021.5 |
| 20260903090010 | 69 | 282 | 5.2 | 13.9 | 0.00 | 0.00 | 0.00 | 59 | 1021.4 |
| 20260903085010 | 69 | 244 | 6.1 | 12.2 | 0.00 | 0.00 | 0.00 | 56 | 1021.5 |
| 20260903084009 | 68 | 216 | 3.5 | 7.8 | 0.00 | 0.00 | 0.00 | 59 | 1021.6 |
| 20260903083009 | 68 | 262 | 2.6 | 7.8 | 0.00 | 0.00 | 0.00 | 61 | 1021.6 |
| 20260903082009 | 67 | 251 | 3.5 | 8.7 | 0.00 | 0.00 | 0.00 | 61 | 1021.5 |
| 20260903081009 | 67 | 223 | 2.6 | 7.0 | 0.00 | 0.00 | 0.00 | 65 | 1021.4 |
| 20260903080009 | 66 | 250 | 2.6 | 7.8 | 0.00 | 0.00 | 0.00 | 63 | 1021.2 |
| 20260903075009 | 66 | 250 | 2.6 | 7.8 | 0.00 | 0.00 | 0.00 | 63 | 1021.2 |
| 20260903074009 | 65 | 236 | 2.6 | 8.7 | 0.00 | 0.00 | 0.00 | 66 | 1021.5 |
| 20260903073009 | 63 | 234 | 2.6 | 8.7 | 0.00 | 0.00 | 0.00 | 69 | 1021.6 |
| 20260903072009 | 62 | 267 | 3.5 | 7.0 | 0.00 | 0.00 | 0.00 | 71 | 1021.8 |
| 20260903071009 | 60 | 273 | 0.9 | 6.1 | 0.00 | 0.00 | 0.00 | 75 | 1021.8 |
| 20260903070009 | 58 | 303 | 0.0 | 0.0 | 0.00 | 0.00 | 0.00 | 78 | 1021.7 |
| 20260903065010 | 57 | 303 | 0.0 | 1.7 | 0.00 | 0.00 | 0.00 | 81 | 1021.7 |
| 20260903064009 | 56 | 303 | 0.0 | 0.9 | 0.00 | 0.00 | 0.00 | 82 | 1021.7 |
| 20260903063009 | 56 | 303 | 0.0 | 1.7 | 0.00 | 0.00 | 0.00 | 85 | 1021.8 |
| 20260903062009 | 55 | 303 | 0.0 | 0.0 | 0.00 | 0.00 | 0.00 | 90 | 1021.7 |
| 20260903061010 | 54 | 302 | 0.0 | 0.0 | 0.00 | 0.00 | 0.00 | 91 | 1021.8 |
| 20260903060009 | 54 | 302 | 0.0 | 0.0 | 0.00 | 0.00 | 0.00 | 91 | 1021.9 |
| 20260903055009 | 53 | 302 | 0.0 | 0.0 | 0.00 | 0.00 | 0.00 | 91 | 1021.8 |
| 20260903054009 | 53 | 302 | 0.9 | 2.6 | 0.00 | 0.00 | 0.00 | 91 | 1021.8 |
| 20260903053009 | 52 | 309 | 0.9 | 2.6 | 0.00 | 0.00 | 0.00 | 91 | 1021.5 |
| 20260903052009 | 51 | 313 | 0.0 | 1.7 | 0.00 | 0.00 | 0.00 | 89 | 1021.4 |
| 20260903051008 | 51 | 313 | 0.0 | 0.0 | 0.00 | 0.00 | 0.00 | 88 | 1021.3 |
| 20260903050009 | 51 | 313 | 0.0 | 0.0 | 0.00 | 0.00 | 0.00 | 87 | 1021.2 |
| 20260903045009 | 52 | 313 | 0.0 | 0.0 | 0.00 | 0.00 | 0.00 | 86 | 1021.1 |
| 20260903044009 | 52 | 313 | 0.0 | 0.0 | 0.00 | 0.00 | 0.00 | 85 | 1021.1 |
| 20260903043009 | 52 | 313 | 0.0 | 0.0 | 0.00 | 0.00 | 0.00 | 85 | 1021.3 |
| 20260903042014 | 52 | 313 | 0.0 | 0.0 | 0.00 | 0.00 | 0.00 | 84 | 1021.3 |
| 20260903041008 | 53 | 313 | 0.0 | 0.0 | 0.00 | 0.00 | 0.00 | 84 | 1021.3 |
| 20260903040009 | 53 | 313 | 0.0 | 0.0 | 0.00 | 0.00 | 0.00 | 84 | 1021.3 |
| 20260903035008 | 53 | 313 | 0.0 | 0.0 | 0.00 | 0.00 | 0.00 | 84 | 1021.3 |
| 20260903034008 | 53 | 313 | 0.0 | 0.0 | 0.00 | 0.00 | 0.00 | 84 | 1021.4 |
| 20260903033008 | 54 | 313 | 0.0 | 0.0 | 0.00 | 0.00 | 0.00 | 83 | 1021.3 |
| 20260903032008 | 54 | 313 | 0.0 | 0.0 | 0.00 | 0.00 | 0.00 | 83 | 1021.3 |
| 20260903031008 | 54 | 313 | 0.0 | 0.0 | 0.00 | 0.00 | 0.00 | 82 | 1021.3 |
| 20260903030008 | 54 | 313 | 0.9 | 1.7 | 0.00 | 0.00 | 0.00 | 82 | 1021.3 |
| 20260903025008 | 55 | 313 | 1.7 | 2.6 | 0.00 | 0.00 | 0.00 | 80 | 1021.4 |
| 20260903024008 | 55 | 313 | 1.7 | 2.6 | 0.00 | 0.00 | 0.00 | 80 | 1021.4 |
| 20260903023021 | 55 | 313 | 1.7 | 2.6 | 0.00 | 0.00 | 0.00 | 79 | 1021.4 |
| 20260903022012 | 55 | 313 | 0.9 | 2.6 | 0.00 | 0.00 | 0.00 | 78 | 1021.3 |
| 20260903021012 | 56 | 313 | 0.0 | 0.0 | 0.00 | 0.00 | 0.00 | 77 | 1021.1 |
| 20260903020012 | 56 | 313 | 0.0 | 0.0 | 0.00 | 0.00 | 0.00 | 76 | 1021.2 |
| 20260903015012 | 56 | 313 | 0.0 | 0.0 | 0.00 | 0.00 | 0.00 | 76 | 1021.2 |
| 20260903014012 | 57 | 313 | 0.0 | 0.0 | 0.00 | 0.00 | 0.00 | 74 | 1021.2 |
| 20260903013012 | 57 | 313 | 0.0 | 1.7 | 0.00 | 0.00 | 0.00 | 74 | 1021.3 |
| 20260903012012 | 57 | 313 | 0.0 | 1.7 | 0.00 | 0.00 | 0.00 | 74 | 1021.4 |
| 20260903011012 | 58 | 313 | 0.9 | 1.7 | 0.00 | 0.00 | 0.00 | 73 | 1021.3 |
| 20260903010012 | 58 | 313 | 0.9 | 1.7 | 0.00 | 0.00 | 0.00 | 74 | 1021.2 |
| 20260903005012 | 58 | 313 | 0.0 | 1.7 | 0.00 | 0.00 | 0.00 | 73 | 1021.2 |
| 20260903004012 | 58 | 313 | 0.9 | 2.6 | 0.00 | 0.00 | 0.00 | 72 | 1021.1 |
| 20260903003012 | 58 | 313 | 0.9 | 2.6 | 0.00 | 0.00 | 0.00 | 72 | 1021.1 |
| 20260903002011 | 59 | 313 | 1.7 | 2.6 | 0.00 | 0.00 | 0.00 | 72 | 1021.1 |
| 20260903001011 | 59 | 313 | 0.9 | 2.6 | 0.00 | 0.00 | 0.00 | 72 | 1021.1 |
| 20260903000011 | 59 | 313 | 0.9 | 3.5 | 0.00 | 0.00 | 0.00 | 72 | 1021.0 |
| 20260902235011 | 60 | 313 | 0.0 | 0.0 | 0.00 | 0.00 | 0.00 | 71 | 1021.0 |
| 20260902234011 | 60 | 313 | 0.9 | 1.7 | 0.00 | 0.00 | 0.00 | 71 | 1021.0 |
| 20260902233012 | 60 | 313 | 0.9 | 2.6 | 0.00 | 0.00 | 0.00 | 71 | 1021.2 |
| 20260902232012 | 60 | 313 | 0.9 | 3.5 | 0.00 | 0.00 | 0.00 | 71 | 1021.1 |
| 20260902231011 | 61 | 325 | 0.9 | 2.6 | 0.00 | 0.00 | 0.00 | 70 | 1021.0 |
| 20260902230011 | 61 | 325 | 0.0 | 2.6 | 0.00 | 0.00 | 0.00 | 70 | 1021.1 |
| 20260902225011 | 61 | 325 | 0.0 | 0.0 | 0.00 | 0.00 | 0.00 | 70 | 1021.1 |
| 20260902224011 | 61 | 325 | 0.0 | 0.0 | 0.00 | 0.00 | 0.00 | 70 | 1021.1 |
| 20260902223011 | 62 | 325 | 0.0 | 0.0 | 0.00 | 0.00 | 0.00 | 69 | 1021.1 |
| 20260902222011 | 62 | 325 | 0.0 | 0.0 | 0.00 | 0.00 | 0.00 | 70 | 1021.2 |
| 20260902221011 | 62 | 325 | 0.0 | 0.0 | 0.00 | 0.00 | 0.00 | 69 | 1021.1 |
| 20260902220011 | 62 | 325 | 0.0 | 0.0 | 0.00 | 0.00 | 0.00 | 69 | 1021.0 |
| 20260902215011 | 62 | 325 | 0.0 | 0.0 | 0.00 | 0.00 | 0.00 | 69 | 1021.0 |
| 20260902214011 | 62 | 325 | 0.0 | 1.7 | 0.00 | 0.00 | 0.00 | 69 | 1021.1 |
| 20260902213011 | 62 | 325 | 0.9 | 2.6 | 0.00 | 0.00 | 0.00 | 68 | 1021.0 |
| 20260902212011 | 62 | 325 | 0.0 | 0.0 | 0.00 | 0.00 | 0.00 | 68 | 1021.1 |
| 20260902211011 | 63 | 325 | 0.9 | 2.6 | 0.00 | 0.00 | 0.00 | 68 | 1021.0 |
| 20260902210011 | 63 | 325 | 0.9 | 2.6 | 0.00 | 0.00 | 0.00 | 68 | 1021.0 |
| 20260902205011 | 63 | 325 | 1.7 | 2.6 | 0.00 | 0.00 | 0.00 | 68 | 1020.9 |
| 20260902204011 | 63 | 325 | 1.7 | 2.6 | 0.00 | 0.00 | 0.00 | 67 | 1020.8 |
| 20260902203010 | 63 | 325 | 1.7 | 2.6 | 0.00 | 0.00 | 0.00 | 66 | 1020.8 |
| 20260902202010 | 63 | 325 | 0.9 | 2.6 | 0.00 | 0.00 | 0.00 | 66 | 1020.7 |
| 20260902201010 | 64 | 325 | 0.9 | 2.6 | 0.00 | 0.00 | 0.00 | 66 | 1020.5 |
| 20260902200010 | 64 | 325 | 0.0 | 1.7 | 0.00 | 0.00 | 0.00 | 65 | 1020.5 |
| 20260902195010 | 64 | 325 | 0.9 | 2.6 | 0.00 | 0.00 | 0.00 | 64 | 1020.5 |
| 20260902194010 | 64 | 325 | 1.7 | 2.6 | 0.00 | 0.00 | 0.00 | 65 | 1020.5 |
| 20260902193010 | 65 | 325 | 1.7 | 2.6 | 0.00 | 0.00 | 0.00 | 64 | 1020.4 |
| 20260902192010 | 65 | 325 | 0.0 | 2.6 | 0.00 | 0.00 | 0.00 | 63 | 1020.5 |
| 20260902191010 | 65 | 325 | 0.0 | 0.0 | 0.00 | 0.00 | 0.00 | 62 | 1020.4 |
| 20260902190010 | 66 | 325 | 0.0 | 0.0 | 0.00 | 0.00 | 0.00 | 61 | 1020.2 |
| 20260902185010 | 66 | 325 | 0.0 | 0.0 | 0.00 | 0.00 | 0.00 | 60 | 1020.2 |
| 20260902184010 | 67 | 325 | 0.9 | 1.7 | 0.00 | 0.00 | 0.00 | 59 | 1020.0 |
| 20260902183010 | 67 | 325 | 0.9 | 1.7 | 0.00 | 0.00 | 0.00 | 58 | 1019.9 |
| 20260902182010 | 68 | 325 | 0.0 | 0.0 | 0.00 | 0.00 | 0.00 | 57 | 1019.8 |
| 20260902181010 | 68 | 325 | 0.0 | 0.0 | 0.00 | 0.00 | 0.00 | 56 | 1019.7 |
| 20260902180011 | 69 | 325 | 0.9 | 1.7 | 0.00 | 0.00 | 0.00 | 55 | 1019.6 |
| 20260902175010 | 70 | 325 | 0.0 | 1.7 | 0.00 | 0.00 | 0.00 | 55 | 1019.5 |
| 20260902174010 | 70 | 325 | 1.7 | 3.5 | 0.00 | 0.00 | 0.00 | 54 | 1019.5 |
| 20260902173009 | 71 | 321 | 1.7 | 4.3 | 0.00 | 0.00 | 0.00 | 53 | 1019.4 |
| 20260902172010 | 71 | 321 | 1.7 | 4.3 | 0.00 | 0.00 | 0.00 | 53 | 1019.4 |
| 20260902171010 | 72 | 299 | 3.5 | 7.0 | 0.00 | 0.00 | 0.00 | 53 | 1019.4 |
| 20260902170011 | 71 | 263 | 3.5 | 7.8 | 0.00 | 0.00 | 0.00 | 54 | 1019.4 |
| 20260902165010 | 71 | 304 | 2.6 | 7.0 | 0.00 | 0.00 | 0.00 | 54 | 1019.4 |
| 20260902164009 | 72 | 294 | 2.6 | 7.8 | 0.00 | 0.00 | 0.00 | 53 | 1019.3 |
| 20260902163011 | 72 | 275 | 5.2 | 9.6 | 0.00 | 0.00 | 0.00 | 54 | 1019.3 |